Meteo pe oră la Bolshoe Malinskoe

Astăzi, 6 Mai, Joi

Timp Temperatura Precipitaţii Vânt Presiune Umiditate
00:00 +5°C° 0 mm 2 m/s 741 mmHg 96%
01:00 +4°C° 0 mm 2 m/s 740 mmHg 97%
02:00 +4°C° 0 mm 2 m/s 740 mmHg 98%
03:00 +5°C° 0.1 mm 2 m/s 740 mmHg 97%
04:00 +4°C° 0.1 mm 3 m/s 739 mmHg 96%
05:00 +4°C° 0.1 mm 3 m/s 739 mmHg 95%
06:00 +6°C° 0.1 mm 4 m/s 738 mmHg 93%
07:00 +7°C° 0.1 mm 4 m/s 737 mmHg 91%
08:00 +9°C° 0 mm 5 m/s 737 mmHg 89%
09:00 +12°C° 0.1 mm 5 m/s 736 mmHg 82%
10:00 +13°C° 0.1 mm 6 m/s 735 mmHg 76%
11:00 +15°C° 0.1 mm 6 m/s 735 mmHg 70%
12:00 +15°C° 0.6 mm 7 m/s 734 mmHg 73%
13:00 +14°C° 0.6 mm 7 m/s 734 mmHg 77%
14:00 +12°C° 0.6 mm 7 m/s 734 mmHg 81%
15:00 +11°C° 0.3 mm 7 m/s 734 mmHg 83%
16:00 +10°C° 0.3 mm 7 m/s 734 mmHg 85%
17:00 +9°C° 0.3 mm 7 m/s 734 mmHg 87%
18:00 +7°C° 0.1 mm 6 m/s 735 mmHg 88%
19:00 +6°C° 0.1 mm 5 m/s 736 mmHg 88%
20:00 +5°C° 0.1 mm 5 m/s 737 mmHg 89%
21:00 +5°C° 0 mm 5 m/s 737 mmHg 88%
22:00 +5°C° 0 mm 5 m/s 737 mmHg 87%
23:00 +5°C° 0 mm 5 m/s 738 mmHg 87%

Mâine, 7 Mai, Vineri

Timp Temperatura Precipitaţii Vânt Presiune Umiditate
00:00 +5°C° 0 mm 5 m/s 738 mmHg 86%
01:00 +3°C° 0 mm 5 m/s 739 mmHg 86%
02:00 +3°C° 0 mm 5 m/s 739 mmHg 86%
03:00 +3°C° 0 mm 5 m/s 739 mmHg 85%
04:00 +3°C° 0 mm 5 m/s 740 mmHg 85%
05:00 +3°C° 0 mm 5 m/s 740 mmHg 85%
06:00 +3°C° 0 mm 5 m/s 740 mmHg 81%
07:00 +5°C° 0 mm 5 m/s 741 mmHg 77%
08:00 +6°C° 0 mm 5 m/s 741 mmHg 72%
09:00 +7°C° 0.2 mm 5 m/s 741 mmHg 66%
10:00 +8°C° 0.2 mm 5 m/s 741 mmHg 60%
11:00 +9°C° 0.2 mm 6 m/s 741 mmHg 53%
12:00 +9°C° 0.4 mm 6 m/s 742 mmHg 57%
13:00 +9°C° 0.4 mm 6 m/s 742 mmHg 60%
14:00 +9°C° 0.4 mm 6 m/s 742 mmHg 63%
15:00 +9°C° 0.1 mm 5 m/s 742 mmHg 61%
16:00 +11°C° 0.1 mm 4 m/s 742 mmHg 59%
17:00 +11°C° 0.1 mm 3 m/s 742 mmHg 57%
18:00 +9°C° 0 mm 3 m/s 742 mmHg 66%
19:00 +8°C° 0 mm 2 m/s 743 mmHg 74%
20:00 +6°C° 0 mm 2 m/s 743 mmHg 83%
21:00 +6°C° 0 mm 2 m/s 743 mmHg 85%
22:00 +5°C° 0 mm 3 m/s 743 mmHg 88%
23:00 +5°C° 0 mm 3 m/s 743 mmHg 90%

Poimâine, 8 Mai, Sâmbătă

Timp Temperatura Precipitaţii Vânt Presiune Umiditate
00:00 +5°C° 0.1 mm 3 m/s 742 mmHg 91%
01:00 +6°C° 0.1 mm 4 m/s 742 mmHg 91%
02:00 +6°C° 0.1 mm 4 m/s 741 mmHg 91%
03:00 +6°C° 0.8 mm 5 m/s 741 mmHg 91%
04:00 +5°C° 0.8 mm 6 m/s 740 mmHg 91%
05:00 +5°C° 0.8 mm 6 m/s 740 mmHg 91%
06:00 +5°C° 0.4 mm 6 m/s 739 mmHg 92%
07:00 +5°C° 0.4 mm 6 m/s 739 mmHg 92%
08:00 +5°C° 0.4 mm 6 m/s 739 mmHg 93%
09:00 +6°C° 0.2 mm 5 m/s 739 mmHg 93%
10:00 +6°C° 0.2 mm 5 m/s 739 mmHg 93%
11:00 +7°C° 0.2 mm 5 m/s 739 mmHg 93%
12:00 +7°C° 0.3 mm 4 m/s 738 mmHg 93%
13:00 +6°C° 0.3 mm 4 m/s 738 mmHg 94%
14:00 +7°C° 0.3 mm 3 m/s 738 mmHg 95%
15:00 +7°C° 0.5 mm 3 m/s 737 mmHg 96%
16:00 +7°C° 0.5 mm 3 m/s 737 mmHg 96%
17:00 +7°C° 0.5 mm 3 m/s 736 mmHg 97%
18:00 +7°C° 0.6 mm 2 m/s 736 mmHg 97%
19:00 +7°C° 0.6 mm 2 m/s 735 mmHg 98%
20:00 +7°C° 0.6 mm 2 m/s 735 mmHg 98%
21:00 +7°C° 0.3 mm 2 m/s 735 mmHg 97%
22:00 +5°C° 0.3 mm 3 m/s 735 mmHg 97%
23:00 +5°C° 0.3 mm 3 m/s 734 mmHg 96%

9 Mai, Duminică

Timp Temperatura Precipitaţii Vânt Presiune Umiditate
00:00 +4°C° 1.8 mm 4 m/s 735 mmHg 96%
01:00 +3°C° 1.8 mm 4 m/s 736 mmHg 97%
02:00 0°C° 1.8 mm 5 m/s 736 mmHg 97%
03:00 +1°C° 1.7 mm 6 m/s 737 mmHg 97%
04:00 +1°C° 1.7 mm 6 m/s 738 mmHg 97%
05:00 +2°C° 1.7 mm 7 m/s 739 mmHg 96%
06:00 +2°C° 0.2 mm 7 m/s 740 mmHg 93%
07:00 +2°C° 0.2 mm 7 m/s 742 mmHg 89%
08:00 +3°C° 0.2 mm 6 m/s 743 mmHg 85%
09:00 +4°C° 0 mm 6 m/s 744 mmHg 76%
10:00 +7°C° 0 mm 6 m/s 745 mmHg 66%
11:00 +8°C° 0 mm 6 m/s 746 mmHg 57%
12:00 +9°C° 0 mm 6 m/s 747 mmHg 54%
13:00 +9°C° 0 mm 6 m/s 748 mmHg 51%
14:00 +10°C° 0 mm 5 m/s 749 mmHg 48%
15:00 +10°C° 0 mm 5 m/s 750 mmHg 48%
16:00 +11°C° 0 mm 4 m/s 750 mmHg 49%
17:00 +11°C° 0 mm 3 m/s 751 mmHg 49%
18:00 +9°C° 0 mm 3 m/s 751 mmHg 57%
19:00 +7°C° 0 mm 2 m/s 752 mmHg 64%
20:00 +5°C° 0 mm 2 m/s 753 mmHg 71%
21:00 +5°C° 0 mm 2 m/s 753 mmHg 75%
22:00 +4°C° 0 mm 2 m/s 754 mmHg 78%
23:00 +3°C° 0 mm 2 m/s 754 mmHg 81%

10 Mai, Luni

Timp Temperatura Precipitaţii Vânt Presiune Umiditate
00:00 +3°C° 0 mm 2 m/s 755 mmHg 82%
01:00 +3°C° 0 mm 2 m/s 755 mmHg 83%
02:00 +3°C° 0 mm 2 m/s 756 mmHg 83%
03:00 +3°C° 0 mm 2 m/s 756 mmHg 81%
04:00 +4°C° 0 mm 2 m/s 756 mmHg 78%
05:00 +3°C° 0 mm 3 m/s 757 mmHg 76%
06:00 +5°C° 0 mm 3 m/s 757 mmHg 69%
07:00 +7°C° 0 mm 4 m/s 757 mmHg 63%
08:00 +10°C° 0 mm 4 m/s 757 mmHg 57%
09:00 +11°C° 0 mm 4 m/s 757 mmHg 57%
10:00 +11°C° 0 mm 4 m/s 757 mmHg 57%
11:00 +12°C° 0 mm 4 m/s 757 mmHg 57%
12:00 +13°C° 0 mm 4 m/s 757 mmHg 55%
13:00 +14°C° 0 mm 5 m/s 757 mmHg 53%
14:00 +15°C° 0 mm 5 m/s 757 mmHg 51%
15:00 +15°C° 0 mm 4 m/s 757 mmHg 54%
16:00 +15°C° 0 mm 4 m/s 757 mmHg 58%
17:00 +15°C° 0 mm 4 m/s 757 mmHg 61%
18:00 +13°C° 0 mm 3 m/s 757 mmHg 68%
19:00 +11°C° 0 mm 3 m/s 757 mmHg 76%
20:00 +9°C° 0 mm 2 m/s 758 mmHg 83%
21:00 +9°C° 0 mm 2 m/s 758 mmHg 84%
22:00 +8°C° 0 mm 2 m/s 758 mmHg 86%
23:00 +8°C° 0 mm 2 m/s 758 mmHg 87%

11 Mai, Marţi

Timp Temperatura Precipitaţii Vânt Presiune Umiditate
00:00 +8°C° 0 mm 2 m/s 758 mmHg 88%
01:00 +7°C° 0 mm 2 m/s 758 mmHg 89%
02:00 +7°C° 0 mm 2 m/s 758 mmHg 89%
03:00 +8°C° 0 mm 2 m/s 759 mmHg 88%
04:00 +8°C° 0 mm 2 m/s 759 mmHg 87%
05:00 +8°C° 0 mm 2 m/s 759 mmHg 85%
06:00 +10°C° 0 mm 3 m/s 759 mmHg 77%
07:00 +12°C° 0 mm 3 m/s 759 mmHg 69%
08:00 +14°C° 0 mm 3 m/s 759 mmHg 61%
09:00 +16°C° 0 mm 3 m/s 759 mmHg 58%
10:00 +17°C° 0 mm 3 m/s 759 mmHg 54%
11:00 +19°C° 0 mm 3 m/s 759 mmHg 50%
12:00 +19°C° 0 mm 3 m/s 759 mmHg 48%
13:00 +20°C° 0 mm 3 m/s 759 mmHg 47%
14:00 +20°C° 0 mm 3 m/s 759 mmHg 45%
15:00 +20°C° 0 mm 3 m/s 759 mmHg 49%
16:00 +20°C° 0 mm 2 m/s 758 mmHg 52%
17:00 +19°C° 0 mm 2 m/s 758 mmHg 55%
18:00 +17°C° 0 mm 2 m/s 758 mmHg 63%
19:00 +15°C° 0 mm 2 m/s 758 mmHg 71%
20:00 +13°C° 0 mm 2 m/s 758 mmHg 78%
21:00 +12°C° 0 mm 2 m/s 758 mmHg 79%
22:00 +12°C° 0 mm 2 m/s 758 mmHg 80%
23:00 +10°C° 0 mm 2 m/s 759 mmHg 81%
Arată mai mult

Formular de consimțământ

Meteoprog și furnizorii noștri de servicii pot stoca și accesa date personale, precum cookies, identificatori de dispozitiv sau alte tehnologii similare pe dispozitivul dumneavoastră și procesa astfel de date pentru a personaliza conținutul și reclamele, dar și pentru a oferi caracteristici de social media și pentru a analiza traficul.

  • Stocarea și/sau accesarea informațiilor pe dispozitivul dumneavoastră

    Cookies, identificatori de dispozitiv sau alte informații pot fi stocate sau accesate pe dispozitiv în scopurile indicate mai sus.

  • Reclame și conținut personalizat, evaluarea reclamelor și a conținutului, informații despre audiențe și dezvoltarea produselor

    Reclamele și conținutul pot fi personalizate pe baza unui profil. Pot fi adăugate date suplimentare pentru a personaliza mai bine reclamele și conținutul. Performanța reclamelor și conținutului poate fi măsurată. Pot fi obținute informații despre utilizatorii care au văzut reclamele și conținutul. Aceste date pot fi utilizate pentru a dezvolta sau îmbunătăți experiența utilizatorilor, sistemele și software-ul.

Dând clic pe ‘Sunt de acord’, permiteți utilizarea cookie-urilor menționate, a identificatorilor de dispozitiv, balizelor web sau altor tehnologii similare. Setările pot fi modificate din browser-ul dispozitivului dumneavoastră.

În anumite scopuri, interesele legitime pot prima asupra consimțământului. Puteți citi mai multe informații în acest sens în Politica privind Confidențialitatea Datelor și Cookie.